Address 0x214d9d267a8013997c612272fcbbe7b771bcb624

 
Txn Hash
Block
From
To
Value [Txn Fee]
0x2fc4ba15c428b65f43d4e6b1d59e520a947aab1af2c49f758ff2a9b99cb0eccb83200552021-06-15 14:02:485 days 58 mins ago0x214d9d267a8013997c612272fcbbe7b771bcb624OUT0x05dab83cf21dc5a3fb339ee7dc37b5d746c0d60856.323530250862926 BNB0.000105
0xffa0d6ccabb1c52ea0493f7dc601f0e5b4ba2e421f665ad3a4454d4c5aedb56683200342021-06-15 14:01:455 days 59 mins ago0x214d9d267a8013997c612272fcbbe7b771bcb624OUT PancakeSwap: Router v20 BNB0.00063348
0x68ead7b6e9af3f80c32ab6067df5558683c6d986fdcc985935d853ea5e8a100483200232021-06-15 14:01:125 days 1 hr ago0x214d9d267a8013997c612272fcbbe7b771bcb624OUT PancakeSwap: Router v20 BNB0.0007083
0x34e8b2a969c94c5b23c15f8bdb7583fead4b5ac62a513e14777a544078abd3b783200162021-06-15 14:00:515 days 1 hr ago0x214d9d267a8013997c612272fcbbe7b771bcb624OUT PancakeSwap: Router v20 BNB0.0007083
0x6294627026bbed72d4c9d1bb6701b9321b90be29b6cf0070d1fddac6f1f5a04283199912021-06-15 13:59:365 days 1 hr ago0x214d9d267a8013997c612272fcbbe7b771bcb624OUT 0x6bf10f6b156aaa1508765fe5f531ea510165a8ff0 BNB0.00043107
0xf10f1c0469b047c8f4d33324f18766ef8ba6f4fc1966c1203055959bc2a88ddb83032192021-06-14 23:46:095 days 15 hrs ago0x214d9d267a8013997c612272fcbbe7b771bcb624OUT 0x6bf10f6b156aaa1508765fe5f531ea510165a8ff0 BNB0.00065637
0x841426c02ac59d490026961ddfb52e08123720c75db02af42c16aca0b78d77c182595262021-06-13 10:53:367 days 4 hrs ago0x214d9d267a8013997c612272fcbbe7b771bcb624OUT0x05dab83cf21dc5a3fb339ee7dc37b5d746c0d60874.15 BNB0.000105
0x6377ceade87c4ac4266e43b8e06efa15c8c038e078df20c3658c79e68e5db7de82595012021-06-13 10:52:217 days 4 hrs ago0x214d9d267a8013997c612272fcbbe7b771bcb624OUT PancakeSwap: Router v20 BNB0.000618955
0xf14a2d70f70e0f65bf2bee88e2388f584df436a80a09b1e039da30795a4f11db82594882021-06-13 10:51:427 days 4 hrs ago0x214d9d267a8013997c612272fcbbe7b771bcb624OUT 0xf17c06eb029f6ab934e09ca4766ec373a78081b30 BNB0.00051738
0xd60d76cd062d2dd9b1428c7c012cfde99dc965c1f09c0cfb8ca1f8b5ea4bcf6f82590062021-06-13 10:27:367 days 4 hrs ago0x214d9d267a8013997c612272fcbbe7b771bcb624OUT0x05dab83cf21dc5a3fb339ee7dc37b5d746c0d60878 BNB0.000105
0xba111b71a8341592e30bdd89177a039fd535aa1f46dc08d62c7844380f16648282589772021-06-13 10:26:097 days 4 hrs ago0x214d9d267a8013997c612272fcbbe7b771bcb624OUT PancakeSwap: Router v20 BNB0.000618955
0x96d35356fb415c3a9e1e1fa4233b8e7ca6fd4613a6c1aa92aa06dbfc6b108ccd82589042021-06-13 10:22:307 days 4 hrs ago0x214d9d267a8013997c612272fcbbe7b771bcb624OUT 0xf17c06eb029f6ab934e09ca4766ec373a78081b30 BNB0.00056345
0x3aad4b2e3433863c3eb9dfba229f778c57d4db1759b79371dca97a08f593083782580602021-06-13 9:39:057 days 5 hrs ago0x214d9d267a8013997c612272fcbbe7b771bcb624OUT0x05dab83cf21dc5a3fb339ee7dc37b5d746c0d60858.85 BNB0.000105
0x3b9ff003fc9c8a58ef78cec946d69879272e6e6ecaaa112d03bf31a9c6ac616c82580262021-06-13 9:37:237 days 5 hrs ago0x214d9d267a8013997c612272fcbbe7b771bcb624OUT PancakeSwap: Router v20 BNB0.00063342
0x965bc8af4bdc166d9d3b3ca3da366062d95d5834e01e2352b22dc48934c8c21b82578452021-06-13 9:28:067 days 5 hrs ago0x214d9d267a8013997c612272fcbbe7b771bcb624OUT 0x6bf10f6b156aaa1508765fe5f531ea510165a8ff0 BNB0.000581175
0x1ea86e630d9580361b6af03c1d5c15a1ddade3361dd7d1691556dae107adab9082575852021-06-13 9:15:027 days 5 hrs ago0x214d9d267a8013997c612272fcbbe7b771bcb624OUT 0x6bf10f6b156aaa1508765fe5f531ea510165a8ff0 BNB0.000581175
0x046f78095af783b4990ab3df14059e760c84b7cdf24ed781de7327b5c9880df782492362021-06-13 2:14:177 days 12 hrs ago0x214d9d267a8013997c612272fcbbe7b771bcb624OUT BUSD-T Stablecoin0 BNB0.000180695
0x83acab8d53e212e77da81c86a658e87a5092bd970bc58f845672558af8d8899482492042021-06-13 2:12:417 days 12 hrs ago0x214d9d267a8013997c612272fcbbe7b771bcb624OUT PancakeSwap: Router v20 BNB0.000821305
0x7d41ff2055823f91a48f5ca18dcc867c8c45cc3bea704dd5b0ea2dab505c6db582491962021-06-13 2:12:177 days 12 hrs ago0x214d9d267a8013997c612272fcbbe7b771bcb624OUT TrustFi Network: TFI Token0 BNB0.0002224
0x94988078853fbf67d9485ee7a6f84ec7aee15289789f9490b4643a9fbef8c0b182467332021-06-13 0:07:497 days 14 hrs ago0x214d9d267a8013997c612272fcbbe7b771bcb624OUT 0x6bf10f6b156aaa1508765fe5f531ea510165a8ff0 BNB0.00062391
0x9942d745c7dac5c06eefb0513f321bc35da9eac846e95665488f455a9c4b193382466962021-06-13 0:05:587 days 14 hrs ago0x214d9d267a8013997c612272fcbbe7b771bcb624OUT 0xf17c06eb029f6ab934e09ca4766ec373a78081b30 BNB0.000595455
0xb0155f2df0f02ea3e7a9cbebb277aaa1d5af377786cc876b44ec9cf59792b46d82466902021-06-13 0:05:407 days 14 hrs ago0x214d9d267a8013997c612272fcbbe7b771bcb624OUT 0xf17c06eb029f6ab934e09ca4766ec373a78081b30 BNB0.00045155
0x2c3f75dc678c0a2e7f704e5546a67c56f08b62e01319f91bcafedef2c9aa693482139022021-06-11 20:39:118 days 18 hrs ago0x214d9d267a8013997c612272fcbbe7b771bcb624OUT 0xf17c06eb029f6ab934e09ca4766ec373a78081b30 BNB0.000595455
0x50fff899ea91fa6e4a5d4a1ecb23b7bf9434d1785ed65de44936e810601c696082138972021-06-11 20:38:568 days 18 hrs ago0x214d9d267a8013997c612272fcbbe7b771bcb624OUT 0xf17c06eb029f6ab934e09ca4766ec373a78081b30 BNB0.00045155
0x8925baeb3a583ecf48c5112c870214fa5eaaa6d3ddae12a38c58fb90e6333a0482138822021-06-11 20:38:118 days 18 hrs ago0x214d9d267a8013997c612272fcbbe7b771bcb624OUT 0x6bf10f6b156aaa1508765fe5f531ea510165a8ff0 BNB0.00062391
[ Download CSV Export 
Latest 7 internal transactions
Parent Txn Hash Block From To Value
0xffa0d6ccabb1c52ea0493f7dc601f0e5b4ba2e421f665ad3a4454d4c5aedb56683200342021-06-15 14:01:455 days 59 mins ago PancakeSwap: Router v20x214d9d267a8013997c612272fcbbe7b771bcb62419.163283284795740564 BNB
0x68ead7b6e9af3f80c32ab6067df5558683c6d986fdcc985935d853ea5e8a100483200232021-06-15 14:01:125 days 1 hr ago PancakeSwap: Router v20x214d9d267a8013997c612272fcbbe7b771bcb62418.201715978540715157 BNB
0x34e8b2a969c94c5b23c15f8bdb7583fead4b5ac62a513e14777a544078abd3b783200162021-06-15 14:00:515 days 1 hr ago PancakeSwap: Router v20x214d9d267a8013997c612272fcbbe7b771bcb62418.56358184933112464 BNB
0x6377ceade87c4ac4266e43b8e06efa15c8c038e078df20c3658c79e68e5db7de82595012021-06-13 10:52:217 days 4 hrs ago PancakeSwap: Router v20x214d9d267a8013997c612272fcbbe7b771bcb62474.148530489702219689 BNB
0xba111b71a8341592e30bdd89177a039fd535aa1f46dc08d62c7844380f16648282589772021-06-13 10:26:097 days 4 hrs ago PancakeSwap: Router v20x214d9d267a8013997c612272fcbbe7b771bcb62477.915699024574040205 BNB
0x3b9ff003fc9c8a58ef78cec946d69879272e6e6ecaaa112d03bf31a9c6ac616c82580262021-06-13 9:37:237 days 5 hrs ago PancakeSwap: Router v20x214d9d267a8013997c612272fcbbe7b771bcb62458.845351927919085839 BNB
0xa47aa1c908f37c6df3a0048b3b61694ce52b3db521f47ea2b8069550a5bcd50570969312021-05-03 9:05:5548 days 5 hrs ago BSC: Token Hub0x214d9d267a8013997c612272fcbbe7b771bcb62467.35 BNB
[ Download CSV Export 
Loading

Contract Name:
0 BNB

Compiler Version
0

Optimization Enabled:
0 BNB

Other Settings:
-NA-
Block Transaction Gas Used Reward
Age Block Fee Address BC Fee Address Voting Power Jailed Incoming
Block Uncle Number Difficulty Gas Used Reward
Loading
Loading
Make sure to use the "Vote Down" button for any spammy posts, and the "Vote Up" for interesting conversations.